,,Stat6,,Stat2,,Stat8,,Stat9,,Stat10,,Wind1,,Wind1,
time,status,PA1M_AVG,status,PR1M_SUM,status,RH1M_AVG,status,SR1M_AVG,status,TA1M_AVG,status,W1dAve1m,status,W1sAve1m,
2006-04-09, 00:00:00,VALID,918.087,VALID,0,VALID,99.7752,VALID,-0.186789,VALID,20.0384,VALID,358,VALID,0.672877,
2006-04-09, 00:01:00,VALID,918.089,VALID,0,VALID,99.7167,VALID,-0.186789,VALID,21.2119,VALID,357,VALID,0.474023,
2006-04-09, 00:02:00,VALID,918.074,VALID,0,VALID,99.6455,VALID,-0.152827,VALID,21.6193,VALID,356,VALID,0.651634,
2006-04-09, 00:03:00,VALID,918.067,VALID,0,VALID,99.559,VALID,-0.186789,VALID,20.9621,VALID,355,VALID,0.591844,
2006-04-09, 00:04:00,VALID,918.061,VALID,0,VALID,99.6226,VALID,-0.101885,VALID,20.1395,VALID,355,VALID,0.269077,
2006-04-09, 00:05:00,VALID,918.055,VALID,0,VALID,99.6747,VALID,-0.20377,VALID,20.7363,VALID,355,VALID,0,
2006-04-09, 00:06:00,VALID,918.047,VALID,0,VALID,99.7523,VALID,-0.135847,VALID,21.2219,VALID,355,VALID,0.0955669,
2006-04-09, 00:07:00,VALID,918.042,VALID,0,VALID,99.8426,VALID,0,VALID,21.308,VALID,355,VALID,0.455788,
2006-04-09, 00:08:00,VALID,918.05,VALID,0,VALID,99.9568,VALID,-0.0339617,VALID,21.1788,VALID,355,VALID,0.291667,
2006-04-09, 00:09:00,VALID,918.059,VALID,0,VALID,99.9967,VALID,-0.220751,VALID,21.2175,VALID,352,VALID,0.799414,
2006-04-09, 00:10:00,VALID,918.07,VALID,0,VALID,99.986,VALID,-0.101885,VALID,19.4274,VALID,346,VALID,0.556771,
2006-04-09, 00:11:00,VALID,918.089,VALID,0,VALID,100,VALID,-0.101885,VALID,21.2061,VALID,330,VALID,0.46218,
2006-04-09, 00:12:00,VALID,918.075,VALID,0,VALID,100,VALID,-0.118866,VALID,21.2543,VALID,332,VALID,0.419141,
2006-04-09, 00:13:00,VALID,918.059,VALID,0,VALID,100,VALID,-0.135847,VALID,21.064,VALID,349,VALID,0.327567,
2006-04-09, 00:14:00,VALID,918.047,VALID,0,VALID,100,VALID,-0.152827,VALID,20.9493,VALID,349,VALID,0.302973,
2006-04-09, 00:15:00,VALID,918.049,VALID,0,VALID,100,VALID,-0.118866,VALID,20.629,VALID,348,VALID,0.522866,
2006-04-09, 00:16:00,VALID,918.036,VALID,0,VALID,100,VALID,-0.302513,VALID,20.9129,VALID,344,VALID,0.578974,
2006-04-09, 00:17:00,VALID,918.037,VALID,0,VALID,100,VALID,-0.169808,VALID,21.0182,VALID,341,VALID,0.283026,
2006-04-09, 00:18:00,VALID,918.027,VALID,0,VALID,100,VALID,-0.20377,VALID,20.3121,VALID,341,VALID,0.0410156,
2006-04-09, 00:19:00,VALID,918.027,VALID,0,VALID,100,VALID,-0.20377,VALID,20.7364,VALID,341,VALID,0.0367543,
2006-04-09, 00:20:00,VALID,918.025,VALID,0,VALID,100,VALID,-0.169808,VALID,20.9555,VALID,341,VALID,0.015625,
2006-04-09, 00:21:00,VALID,918.034,VALID,0,VALID,100,VALID,-0.135847,VALID,20.5034,VALID,341,VALID,0.12157,
2006-04-09, 00:22:00,VALID,918.038,VALID,0,VALID,100,VALID,-0.152827,VALID,21.1772,VALID,341,VALID,0.00545058,
2006-04-09, 00:23:00,VALID,918.052,VALID,0,VALID,100,VALID,-0.186789,VALID,20.8958,VALID,341,VALID,0,
2006-04-09, 00:24:00,VALID,918.075,VALID,0,VALID,100,VALID,-0.169808,VALID,21.9917,VALID,341,VALID,0,
2006-04-09, 00:25:00,VALID,918.105,VALID,0,VALID,100,VALID,-0.152827,VALID,20.8419,VALID,341,VALID,0,
2006-04-09, 00:26:00,VALID,918.136,VALID,0,VALID,100,VALID,-0.186789,VALID,20.8579,VALID,341,VALID,0,
2006-04-09, 00:27:00,VALID,918.169,VALID,0,VALID,100,VALID,-0.135847,VALID,21.1745,VALID,341,VALID,0.0458984,
2006-04-09, 00:28:00,VALID,918.195,VALID,0,VALID,100,VALID,-0.135847,VALID,21.4027,VALID,341,VALID,0.0453506,
2006-04-09, 00:29:00,VALID,918.233,VALID,0,VALID,100,VALID,-0.186789,VALID,21.3304,VALID,341,VALID,0,
2006-04-09, 00:30:00,VALID,918.253,VALID,0,VALID,100,VALID,-0.20377,VALID,20.9648,VALID,341,VALID,0,
2006-04-09, 00:31:00,VALID,918.274,VALID,0,VALID,100,VALID,-0.135847,VALID,21.2995,VALID,231,VALID,0.778525,
2006-04-09, 00:32:00,VALID,918.29,VALID,0,VALID,100,VALID,-0.0679233,VALID,20.2727,VALID,222,VALID,0.914621,
2006-04-09, 00:33:00,VALID,918.32,VALID,0,VALID,100,VALID,-0.0849042,VALID,19.896,VALID,252,VALID,1.10863,
2006-04-09, 00:34:00,VALID,918.312,VALID,0,VALID,100,VALID,-0.101885,VALID,21.2276,VALID,220,VALID,1.17949,
2006-04-09, 00:35:00,VALID,918.414,VALID,0,VALID,99.9751,VALID,-0.118866,VALID,20.8725,VALID,1,VALID,2.78445,
2006-04-09, 00:36:00,VALID,918.317,VALID,0.4,VALID,99.9001,VALID,-0.152827,VALID,20.6017,VALID,19,VALID,3.77557,
2006-04-09, 00:37:00,VALID,918.284,VALID,0.6,VALID,98.4209,VALID,-0.186789,VALID,20.7892,VALID,9,VALID,3.92587,
2006-04-09, 00:38:00,VALID,918.301,VALID,0.8,VALID,98.4998,VALID,-0.186789,VALID,20.7005,VALID,13,VALID,3.86737,
2006-04-09, 00:39:00,VALID,918.344,VALID,0.6,VALID,99.0351,VALID,-0.152827,VALID,19.8079,VALID,164,VALID,2.47675,
2006-04-09, 00:40:00,VALID,918.345,VALID,0.6,VALID,99.4369,VALID,-0.135847,VALID,19.819,VALID,277,VALID,2.93714,
2006-04-09, 00:41:00,VALID,918.349,VALID,0.4,VALID,99.9687,VALID,-0.169808,VALID,19.5906,VALID,45,VALID,1.88821,
2006-04-09, 00:42:00,VALID,918.203,VALID,0.6,VALID,100,VALID,-0.186789,VALID,18.6068,VALID,36,VALID,3.008,
2006-04-09, 00:43:00,VALID,918.259,VALID,0.4,VALID,100,VALID,-0.186789,VALID,19.7507,VALID,3,VALID,2.67465,
2006-04-09, 00:44:00,VALID,918.239,VALID,0.6,VALID,100,VALID,-0.169808,VALID,19.8396,VALID,22,VALID,3.92642,
2006-04-09, 00:45:00,VALID,918.357,VALID,0.8,VALID,100,VALID,-0.135847,VALID,19.0687,VALID,356,VALID,1.56357,
2006-04-09, 00:46:00,VALID,918.407,VALID,0.6,VALID,100,VALID,-0.152827,VALID,19.055,VALID,323,VALID,3.23549,
2006-04-09, 00:47:00,VALID,918.563,VALID,0.4,VALID,100,VALID,-0.73459,VALID,19.9628,VALID,306,VALID,2.35374,
2006-04-09, 00:48:00,VALID,918.654,VALID,0.2,VALID,100,VALID,-0.186789,VALID,18.3535,VALID,78,VALID,1.24427,
2006-04-09, 00:49:00,VALID,918.695,VALID,0.6,VALID,100,VALID,-0.186789,VALID,19.2114,VALID,28,VALID,2.58594,
2006-04-09, 00:50:00,VALID,918.697,VALID,1.2,VALID,100,VALID,-0.186789,VALID,18.6809,VALID,22,VALID,3.19568,
2006-04-09, 00:51:00,VALID,918.747,VALID,1.2,VALID,100,VALID,-0.169808,VALID,19.4791,VALID,14,VALID,3.35156,
2006-04-09, 00:52:00,VALID,918.772,VALID,0.6,VALID,100,VALID,-0.152827,VALID,18.3015,VALID,351,VALID,2.24944,
2006-04-09, 00:53:00,VALID,918.784,VALID,0.4,VALID,100,VALID,-0.0849042,VALID,18.8932,VALID,9,VALID,1.83825,
2006-04-09, 00:54:00,VALID,918.778,VALID,0.4,VALID,100,VALID,-0.169808,VALID,18.7644,VALID,15,VALID,2.28477,
2006-04-09, 00:55:00,VALID,918.786,VALID,0.4,VALID,100,VALID,-0.135847,VALID,18.9434,VALID,352,VALID,1.73761,
2006-04-09, 00:56:00,VALID,918.797,VALID,0.2,VALID,100,VALID,-0.152827,VALID,18.9143,VALID,328,VALID,1.59617,
2006-04-09, 00:57:00,VALID,918.778,VALID,0,VALID,100,VALID,-0.186789,VALID,19.2413,VALID,305,VALID,1.47207,
2006-04-09, 00:58:00,VALID,918.778,VALID,0.2,VALID,100,VALID,-0.169808,VALID,19.4235,VALID,12,VALID,2.04878,
2006-04-09, 00:59:00,VALID,918.767,VALID,0,VALID,100,VALID,-0.135847,VALID,18.1345,VALID,335,VALID,1.57759,
2006-04-09, 01:00:00,VALID,918.746,VALID,0.2,VALID,100,VALID,-0.20377,VALID,19.6729,VALID,347,VALID,1.93859,
2006-04-09, 01:01:00,VALID,918.703,VALID,0,VALID,100,VALID,-0.169808,VALID,18.0348,VALID,355,VALID,1.29201,
2006-04-09, 01:02:00,VALID,918.689,VALID,0,VALID,100,VALID,-0.186789,VALID,19.1341,VALID,7,VALID,1.37266,
2006-04-09, 01:03:00,VALID,918.653,VALID,0.2,VALID,100,VALID,-0.169808,VALID,19.1537,VALID,12,VALID,0.940104,
2006-04-09, 01:04:00,VALID,918.601,VALID,0,VALID,100,VALID,-0.152827,VALID,18.3295,VALID,6,VALID,1.40091,
2006-04-09, 01:05:00,VALID,918.563,VALID,0.2,VALID,100,VALID,-0.0509425,VALID,17.343,VALID,11,VALID,1.37016,
2006-04-09, 01:06:00,VALID,918.523,VALID,0,VALID,100,VALID,-0.101885,VALID,18.6639,VALID,18,VALID,1.36218,
2006-04-09, 01:07:00,VALID,918.448,VALID,0,VALID,100,VALID,-0.186789,VALID,19.0455,VALID,359,VALID,1.50781,
2006-04-09, 01:08:00,VALID,918.391,VALID,0,VALID,100,VALID,-0.20377,VALID,19.0249,VALID,7,VALID,1.90536,
2006-04-09, 01:09:00,VALID,918.356,VALID,0.2,VALID,100,VALID,-0.20377,VALID,19.2168,VALID,7,VALID,1.63662,
2006-04-09, 01:10:00,VALID,918.345,VALID,0,VALID,100,VALID,-0.186789,VALID,20.1557,VALID,14,VALID,2.56174,
2006-04-09, 01:11:00,VALID,918.291,VALID,0,VALID,100,VALID,-0.0849042,VALID,19.9469,VALID,15,VALID,2.97773,
2006-04-09, 01:12:00,VALID,918.273,VALID,0,VALID,100,VALID,-0.0849042,VALID,19.5307,VALID,26,VALID,2.18415,
2006-04-09, 01:13:00,VALID,918.229,VALID,0.2,VALID,100,VALID,-0.101885,VALID,18.1854,VALID,19,VALID,1.8561,
2006-04-09, 01:14:00,VALID,918.205,VALID,0,VALID,100,VALID,-0.101885,VALID,20.3959,VALID,17,VALID,1.61414,
2006-04-09, 01:15:00,VALID,918.181,VALID,0.2,VALID,100,VALID,-0.118866,VALID,18.9619,VALID,6,VALID,1.27939,
2006-04-09, 01:16:00,VALID,918.125,VALID,0,VALID,100,VALID,-0.169808,VALID,18.2681,VALID,2,VALID,2.47711,
2006-04-09, 01:17:00,VALID,918.08,VALID,0,VALID,100,VALID,-0.23459,VALID,18.7915,VALID,3,VALID,1.85121,
2006-04-09, 01:18:00,VALID,918.039,VALID,0,VALID,100,VALID,-0.0339617,VALID,18.5746,VALID,353,VALID,1.07218,
2006-04-09, 01:19:00,VALID,918,VALID,0,VALID,100,VALID,-0.152827,VALID,19.2484,VALID,341,VALID,0.541481,
2006-04-09, 01:20:00,VALID,917.946,VALID,0,VALID,100,VALID,-0.0509425,VALID,17.3588,VALID,332,VALID,0.708576,
2006-04-09, 01:21:00,VALID,917.908,VALID,0,VALID,100,VALID,-0.169808,VALID,19.095,VALID,305,VALID,0.646984,
2006-04-09, 01:22:00,VALID,917.864,VALID,0,VALID,100,VALID,-0.0849042,VALID,18.403,VALID,355,VALID,0.989169,
2006-04-09, 01:23:00,VALID,917.847,VALID,0,VALID,100,VALID,-0.101885,VALID,18.6126,VALID,330,VALID,0.540625,
2006-04-09, 01:24:00,VALID,917.825,VALID,0,VALID,100,VALID,-0.101885,VALID,18.4887,VALID,320,VALID,0.340298,
2006-04-09, 01:25:00,VALID,917.833,VALID,0,VALID,100,VALID,-0.101885,VALID,18.886,VALID,320,VALID,0.135352,
2006-04-09, 01:26:00,VALID,917.852,VALID,0,VALID,100,VALID,-0.101885,VALID,18.1009,VALID,300,VALID,0.1788,
2006-04-09, 01:27:00,VALID,917.861,VALID,0,VALID,100,VALID,-0.101885,VALID,18.5331,VALID,271,VALID,0.426491,
2006-04-09, 01:28:00,VALID,917.85,VALID,0,VALID,100,VALID,-0.135847,VALID,18.8579,VALID,234,VALID,0.590216,
2006-04-09, 01:29:00,VALID,917.825,VALID,0,VALID,100,VALID,-0.152827,VALID,18.7104,VALID,234,VALID,0.764137,
2006-04-09, 01:30:00,VALID,917.788,VALID,0,VALID,100,VALID,-0.101885,VALID,18.5617,VALID,244,VALID,0.841082,
2006-04-09, 01:31:00,VALID,917.766,VALID,0,VALID,100,VALID,-0.152827,VALID,19.2469,VALID,245,VALID,0.367535,
2006-04-09, 01:32:00,VALID,917.732,VALID,0,VALID,100,VALID,-0.135847,VALID,18.0307,VALID,245,VALID,0.290015,
2006-04-09, 01:33:00,VALID,917.708,VALID,0,VALID,100,VALID,-0.118866,VALID,18.4746,VALID,245,VALID,0.0877131,
2006-04-09, 01:34:00,VALID,917.689,VALID,0,VALID,100,VALID,-0.118866,VALID,18.9576,VALID,245,VALID,0.164971,
2006-04-09, 01:35:00,VALID,917.684,VALID,0,VALID,100,VALID,-0.101885,VALID,19.0498,VALID,245,VALID,0.349826,
2006-04-09, 01:36:00,VALID,917.671,VALID,0,VALID,100,VALID,-0.101885,VALID,19.0889,VALID,242,VALID,0.398996,
2006-04-09, 01:37:00,VALID,917.662,VALID,0,VALID,100,VALID,-0.101885,VALID,19.6051,VALID,197,VALID,0.711483,
2006-04-09, 01:38:00,VALID,917.646,VALID,0,VALID,100,VALID,-0.0849042,VALID,19.3269,VALID,173,VALID,0.587984,
2006-04-09, 01:39:00,VALID,917.623,VALID,0,VALID,100,VALID,-0.118866,VALID,18.4747,VALID,190,VALID,0.957889,
2006-04-09, 01:40:00,VALID,917.588,VALID,0,VALID,100,VALID,-0.118866,VALID,19.1337,VALID,213,VALID,0.868359,
2006-04-09, 01:41:00,VALID,917.57,VALID,0,VALID,100,VALID,-0.169808,VALID,18.5872,VALID,217,VALID,0.739169,
2006-04-09, 01:42:00,VALID,917.559,VALID,0,VALID,100,VALID,-0.135847,VALID,18.0498,VALID,217,VALID,0.88157,
2006-04-09, 01:43:00,VALID,917.529,VALID,0,VALID,100,VALID,-0.101885,VALID,18.9963,VALID,242,VALID,1.13244,
2006-04-09, 01:44:00,VALID,917.495,VALID,0,VALID,100,VALID,-0.0679233,VALID,19.1147,VALID,226,VALID,0.912348,
2006-04-09, 01:45:00,VALID,917.457,VALID,0,VALID,100,VALID,-0.101885,VALID,18.2356,VALID,233,VALID,0.754954,
2006-04-09, 01:46:00,VALID,917.417,VALID,0,VALID,100,VALID,-0.118866,VALID,18.8656,VALID,231,VALID,0.578311,
2006-04-09, 01:47:00,VALID,917.375,VALID,0,VALID,100,VALID,-0.169808,VALID,17.8166,VALID,222,VALID,0.228561,
2006-04-09, 01:48:00,VALID,917.333,VALID,0,VALID,100,VALID,-0.152827,VALID,17.8739,VALID,189,VALID,0.562674,
2006-04-09, 01:49:00,VALID,917.317,VALID,0,VALID,100,VALID,-0.186789,VALID,18.1189,VALID,197,VALID,0.63722,
2006-04-09, 01:50:00,VALID,917.295,VALID,0,VALID,100,VALID,-0.169808,VALID,17.9865,VALID,191,VALID,0.835193,
2006-04-09, 01:51:00,VALID,917.297,VALID,0,VALID,100,VALID,-0.118866,VALID,18.5232,VALID,185,VALID,0.248326,
2006-04-09, 01:52:00,VALID,917.293,VALID,0,VALID,100,VALID,-0.169808,VALID,18.9875,VALID,186,VALID,0.49721,
2006-04-09, 01:53:00,VALID,917.285,VALID,0,VALID,100,VALID,-0.118866,VALID,19.1826,VALID,184,VALID,0.741071,
2006-04-09, 01:54:00,VALID,917.269,VALID,0,VALID,100,VALID,-0.20377,VALID,19.2877,VALID,201,VALID,0.550872,
2006-04-09, 01:55:00,VALID,917.237,VALID,0,VALID,100,VALID,-0.186789,VALID,19.0778,VALID,210,VALID,0.49628,
2006-04-09, 01:56:00,VALID,917.206,VALID,0,VALID,100,VALID,-0.20377,VALID,17.1087,VALID,225,VALID,0.317645,
2006-04-09, 01:57:00,VALID,917.156,VALID,0,VALID,100,VALID,-0.152827,VALID,19.3936,VALID,179,VALID,0.813408,
2006-04-09, 01:58:00,VALID,917.12,VALID,0,VALID,100,VALID,-0.169808,VALID,18.5376,VALID,185,VALID,0.492188,
2006-04-09, 01:59:00,VALID,917.071,VALID,0,VALID,100,VALID,-0.152827,VALID,18.6806,VALID,185,VALID,0.0756944,
2006-04-09, 02:00:00,VALID,917.025,VALID,0,VALID,100,VALID,-0.0679233,VALID,18.1177,VALID,192,VALID,0.311955,
2006-04-09, 02:01:00,VALID,916.976,VALID,0,VALID,100,VALID,-0.101885,VALID,17.8336,VALID,212,VALID,0.361555,
2006-04-09, 02:02:00,VALID,916.938,VALID,0,VALID,100,VALID,-0.0849042,VALID,18.6036,VALID,239,VALID,0.523619,
2006-04-09, 02:03:00,VALID,916.915,VALID,0,VALID,100,VALID,-0.118866,VALID,18.6078,VALID,242,VALID,0.871271,
2006-04-09, 02:04:00,VALID,916.91,VALID,0,VALID,100,VALID,-0.118866,VALID,18.9342,VALID,244,VALID,0.881722,
2006-04-09, 02:05:00,VALID,916.891,VALID,0,VALID,100,VALID,-0.20377,VALID,18.1069,VALID,225,VALID,0.496548,
2006-04-09, 02:06:00,VALID,916.875,VALID,0,VALID,100,VALID,-0.186789,VALID,18.3951,VALID,208,VALID,0.594295,
2006-04-09, 02:07:00,VALID,916.873,VALID,0,VALID,100,VALID,-0.20377,VALID,17.7572,VALID,196,VALID,0.434048,
2006-04-09, 02:08:00,VALID,916.856,VALID,0,VALID,100,VALID,-0.20377,VALID,18.3951,VALID,196,VALID,0.18125,
2006-04-09, 02:09:00,VALID,916.807,VALID,0,VALID,100,VALID,-0.20377,VALID,19.5176,VALID,196,VALID,0.124668,
2006-04-09, 02:10:00,VALID,916.782,VALID,0,VALID,100,VALID,-0.186789,VALID,18.7399,VALID,202,VALID,0.320131,
2006-04-09, 02:11:00,VALID,916.745,VALID,0,VALID,100,VALID,-0.0679233,VALID,18.0863,VALID,230,VALID,0.165465,
2006-04-09, 02:12:00,VALID,916.722,VALID,0,VALID,100,VALID,-0.0679233,VALID,18.7462,VALID,230,VALID,0.00744048,
2006-04-09, 02:13:00,VALID,916.7,VALID,0,VALID,100,VALID,-0.0849042,VALID,19.1335,VALID,213,VALID,0.25218,
2006-04-09, 02:14:00,VALID,916.684,VALID,0,VALID,100,VALID,-0.169808,VALID,18.3379,VALID,198,VALID,0.390988,
2006-04-09, 02:15:00,VALID,916.696,VALID,0,VALID,100,VALID,-0.152827,VALID,18.9126,VALID,200,VALID,0.324219,
2006-04-09, 02:16:00,VALID,916.687,VALID,0,VALID,100,VALID,-0.169808,VALID,18.8094,VALID,228,VALID,0.805035,
2006-04-09, 02:17:00,VALID,916.698,VALID,0,VALID,100,VALID,-0.169808,VALID,18.7858,VALID,228,VALID,0.866655,
2006-04-09, 02:18:00,VALID,916.713,VALID,0,VALID,100,VALID,-0.118866,VALID,17.0036,VALID,221,VALID,0.661644,
2006-04-09, 02:19:00,VALID,916.729,VALID,0,VALID,100,VALID,-0.118866,VALID,17.7876,VALID,192,VALID,0.400781,
2006-04-09, 02:20:00,VALID,916.737,VALID,0,VALID,100,VALID,-0.169808,VALID,18.2632,VALID,194,VALID,0.906795,
2006-04-09, 02:21:00,VALID,916.739,VALID,0,VALID,100,VALID,-0.20377,VALID,18.2883,VALID,189,VALID,0.954492,
2006-04-09, 02:22:00,VALID,916.723,VALID,0,VALID,100,VALID,-0.152827,VALID,18.2048,VALID,187,VALID,0.975632,
2006-04-09, 02:23:00,VALID,916.713,VALID,0,VALID,100,VALID,-0.169808,VALID,18.3066,VALID,176,VALID,0.894804,
2006-04-09, 02:24:00,VALID,916.69,VALID,0,VALID,100,VALID,-0.152827,VALID,18.5179,VALID,176,VALID,1.01766,
2006-04-09, 02:25:00,VALID,916.688,VALID,0,VALID,100,VALID,-0.186789,VALID,18.7181,VALID,165,VALID,0.973366,
2006-04-09, 02:26:00,VALID,916.68,VALID,0,VALID,100,VALID,-0.101885,VALID,17.0948,VALID,169,VALID,0.786156,
2006-04-09, 02:27:00,VALID,916.679,VALID,0,VALID,100,VALID,-0.0849042,VALID,18.5602,VALID,164,VALID,0.766352,
2006-04-09, 02:28:00,VALID,916.67,VALID,0,VALID,100,VALID,-0.186789,VALID,18.7421,VALID,156,VALID,0.542614,
2006-04-09, 02:29:00,VALID,916.657,VALID,0,VALID,100,VALID,-0.169808,VALID,17.6621,VALID,169,VALID,0.615057,
2006-04-09, 02:30:00,VALID,916.638,VALID,0,VALID,100,VALID,-0.101885,VALID,18.0082,VALID,170,VALID,0.869792,
2006-04-09, 02:31:00,VALID,916.615,VALID,0,VALID,100,VALID,-0.101885,VALID,18.9786,VALID,153,VALID,0.762784,
2006-04-09, 02:32:00,VALID,916.596,VALID,0,VALID,100,VALID,-0.101885,VALID,18.4597,VALID,144,VALID,0.431478,
2006-04-09, 02:33:00,VALID,916.589,VALID,0,VALID,100,VALID,-0.101885,VALID,18.2224,VALID,148,VALID,0.965774,
2006-04-09, 02:34:00,VALID,916.576,VALID,0,VALID,100,VALID,-0.101885,VALID,18.6622,VALID,150,VALID,1.18241,
2006-04-09, 02:35:00,VALID,916.582,VALID,0,VALID,100,VALID,-0.101885,VALID,19.1892,VALID,126,VALID,1.22935,
2006-04-09, 02:36:00,VALID,916.583,VALID,0,VALID,100,VALID,-0.169808,VALID,18.3128,VALID,121,VALID,1.06286,
2006-04-09, 02:37:00,VALID,916.569,VALID,0,VALID,100,VALID,-0.101885,VALID,19.4365,VALID,111,VALID,1.31161,
2006-04-09, 02:38:00,VALID,916.554,VALID,0,VALID,100,VALID,-0.101885,VALID,18.7199,VALID,110,VALID,0.769985,
2006-04-09, 02:39:00,VALID,916.53,VALID,0,VALID,100,VALID,-0.101885,VALID,17.0995,VALID,123,VALID,1.03743,
2006-04-09, 02:40:00,VALID,916.506,VALID,0,VALID,100,VALID,-0.101885,VALID,18.8044,VALID,128,VALID,0.911156,
2006-04-09, 02:41:00,VALID,916.466,VALID,0,VALID,100,VALID,-0.20377,VALID,18.605,VALID,114,VALID,0.838844,
2006-04-09, 02:42:00,VALID,916.434,VALID,0,VALID,100,VALID,-0.152827,VALID,18.0143,VALID,119,VALID,0.894626,
2006-04-09, 02:43:00,VALID,916.417,VALID,0,VALID,100,VALID,-0.101885,VALID,18.0039,VALID,113,VALID,1.07676,
2006-04-09, 02:44:00,VALID,916.399,VALID,0,VALID,100,VALID,-0.101885,VALID,18.1922,VALID,118,VALID,0.945676,
2006-04-09, 02:45:00,VALID,916.386,VALID,0,VALID,100,VALID,-0.186789,VALID,17.9632,VALID,115,VALID,0.860828,
2006-04-09, 02:46:00,VALID,916.355,VALID,0,VALID,100,VALID,-0.118866,VALID,18.4079,VALID,109,VALID,0.729421,
2006-04-09, 02:47:00,VALID,916.343,VALID,0,VALID,100,VALID,-0.186789,VALID,18.1863,VALID,112,VALID,0.313988,
2006-04-09, 02:48:00,VALID,916.323,VALID,0,VALID,100,VALID,-0.186789,VALID,17.8523,VALID,113,VALID,0.504764,
2006-04-09, 02:49:00,VALID,916.308,VALID,0,VALID,100,VALID,-0.0849042,VALID,18.0612,VALID,110,VALID,0.703887,
2006-04-09, 02:50:00,VALID,916.269,VALID,0,VALID,100,VALID,-0.101885,VALID,18.0834,VALID,117,VALID,0.992882,
2006-04-09, 02:51:00,VALID,916.229,VALID,0,VALID,100,VALID,-0.169808,VALID,18.0582,VALID,110,VALID,0.967076,
2006-04-09, 02:52:00,VALID,916.213,VALID,0,VALID,100,VALID,-0.101885,VALID,18.8399,VALID,120,VALID,0.585243,
2006-04-09, 02:53:00,VALID,916.21,VALID,0,VALID,100,VALID,-0.0339617,VALID,18.0489,VALID,141,VALID,0.309832,
2006-04-09, 02:54:00,VALID,916.181,VALID,0,VALID,100,VALID,-0.20377,VALID,18.2511,VALID,132,VALID,0.874628,
2006-04-09, 02:55:00,VALID,916.168,VALID,0,VALID,100,VALID,-0.169808,VALID,17.8921,VALID,143,VALID,0.663352,
2006-04-09, 02:56:00,VALID,916.161,VALID,0,VALID,100,VALID,-0.186789,VALID,17.3844,VALID,144,VALID,0.696875,
2006-04-09, 02:57:00,VALID,916.161,VALID,0,VALID,100,VALID,-0.186789,VALID,18.7499,VALID,143,VALID,0.175305,
2006-04-09, 02:58:00,VALID,916.148,VALID,0,VALID,100,VALID,-0.186789,VALID,18.5052,VALID,143,VALID,0.183036,
2006-04-09, 02:59:00,VALID,916.14,VALID,0,VALID,100,VALID,-0.186789,VALID,19.0147,VALID,145,VALID,0.226004,
2006-04-09, 03:00:00,VALID,916.134,VALID,0,VALID,100,VALID,-0.20377,VALID,17.6334,VALID,139,VALID,0.320858,
2006-04-09, 03:01:00,VALID,916.12,VALID,0,VALID,100,VALID,-0.20377,VALID,18.9815,VALID,106,VALID,0.670351,
2006-04-09, 03:02:00,VALID,916.118,VALID,0,VALID,100,VALID,-0.186789,VALID,18.781,VALID,91,VALID,0.704654,
2006-04-09, 03:03:00,VALID,916.114,VALID,0,VALID,100,VALID,-0.101885,VALID,18.1465,VALID,99,VALID,0.76391,
2006-04-09, 03:04:00,VALID,916.112,VALID,0,VALID,100,VALID,-0.101885,VALID,18.8207,VALID,130,VALID,1.1543,
2006-04-09, 03:05:00,VALID,916.103,VALID,0,VALID,100,VALID,-0.118866,VALID,18.4052,VALID,122,VALID,0.718568,
2006-04-09, 03:06:00,VALID,916.094,VALID,0,VALID,100,VALID,-0.20377,VALID,18.8377,VALID,116,VALID,1.10955,
2006-04-09, 03:07:00,VALID,916.077,VALID,0,VALID,100,VALID,-0.20377,VALID,18.6597,VALID,141,VALID,1.06771,
2006-04-09, 03:08:00,VALID,916.055,VALID,0,VALID,100,VALID,-0.20377,VALID,19.0259,VALID,132,VALID,0.849276,
2006-04-09, 03:09:00,VALID,916.045,VALID,0,VALID,100,VALID,-0.20377,VALID,18.0212,VALID,122,VALID,1.04004,
2006-04-09, 03:10:00,VALID,916.024,VALID,0,VALID,100,VALID,-0.186789,VALID,18.0953,VALID,103,VALID,0.760538,
2006-04-09, 03:11:00,VALID,916.028,VALID,0,VALID,100,VALID,-0.186789,VALID,18.2732,VALID,98,VALID,0.579368,
2006-04-09, 03:12:00,VALID,916.013,VALID,0,VALID,100,VALID,-0.118866,VALID,19.2107,VALID,53,VALID,0.70277,
2006-04-09, 03:13:00,VALID,916.01,VALID,0,VALID,100,VALID,-0.101885,VALID,18.975,VALID,43,VALID,1.00391,
2006-04-09, 03:14:00,VALID,916.003,VALID,0,VALID,100,VALID,-0.101885,VALID,17.6049,VALID,28,VALID,0.83505,
2006-04-09, 03:15:00,VALID,916.002,VALID,0,VALID,100,VALID,-0.101885,VALID,18.5311,VALID,27,VALID,0.331641,
2006-04-09, 03:16:00,VALID,916,VALID,0,VALID,100,VALID,-0.101885,VALID,17.3434,VALID,36,VALID,0.305469,
2006-04-09, 03:17:00,VALID,916.001,VALID,0,VALID,100,VALID,-0.169808,VALID,19.1148,VALID,75,VALID,0.458519,
2006-04-09, 03:18:00,VALID,915.981,VALID,0,VALID,100,VALID,-0.118866,VALID,18.0604,VALID,114,VALID,0.434411,
2006-04-09, 03:19:00,VALID,915.958,VALID,0,VALID,100,VALID,-0.169808,VALID,18.0238,VALID,100,VALID,0.665305,
2006-04-09, 03:20:00,VALID,915.928,VALID,0,VALID,100,VALID,-0.20377,VALID,17.3494,VALID,79,VALID,0.696528,
2006-04-09, 03:21:00,VALID,915.927,VALID,0,VALID,100,VALID,-0.186789,VALID,17.7798,VALID,63,VALID,0.794744,
2006-04-09, 03:22:00,VALID,915.88,VALID,0,VALID,100,VALID,-0.152827,VALID,17.5199,VALID,50,VALID,0.78234,
2006-04-09, 03:23:00,VALID,915.857,VALID,0,VALID,100,VALID,-0.0849042,VALID,18.142,VALID,43,VALID,0.751715,
2006-04-09, 03:24:00,VALID,915.839,VALID,0,VALID,100,VALID,-0.0849042,VALID,18.9609,VALID,43,VALID,0.550145,
2006-04-09, 03:25:00,VALID,915.819,VALID,0,VALID,100,VALID,-0.101885,VALID,18.9919,VALID,43,VALID,0.198765,
2006-04-09, 03:26:00,VALID,915.792,VALID,0,VALID,100,VALID,-0.0679233,VALID,17.7757,VALID,43,VALID,0.24628,
2006-04-09, 03:27:00,VALID,915.77,VALID,0,VALID,100,VALID,-0.101885,VALID,18.6304,VALID,43,VALID,0.493075,
2006-04-09, 03:28:00,VALID,915.74,VALID,0,VALID,100,VALID,-0.101885,VALID,17.9165,VALID,43,VALID,0.622461,
2006-04-09, 03:29:00,VALID,915.702,VALID,0,VALID,100,VALID,-0.0849042,VALID,18.1453,VALID,36,VALID,0.957209,
2006-04-09, 03:30:00,VALID,915.682,VALID,0,VALID,100,VALID,-0.0849042,VALID,18.4515,VALID,29,VALID,1.32546,
2006-04-09, 03:31:00,VALID,915.658,VALID,0,VALID,100,VALID,-0.0679233,VALID,18.3212,VALID,25,VALID,1.41992,
2006-04-09, 03:32:00,VALID,915.672,VALID,0,VALID,100,VALID,-0.101885,VALID,17.7169,VALID,30,VALID,1.27435,
2006-04-09, 03:33:00,VALID,915.683,VALID,0,VALID,100,VALID,-0.101885,VALID,18.264,VALID,28,VALID,0.942894,
2006-04-09, 03:34:00,VALID,915.706,VALID,0,VALID,100,VALID,-0.101885,VALID,18.2254,VALID,29,VALID,0.771875,
2006-04-09, 03:35:00,VALID,915.695,VALID,0,VALID,100,VALID,-0.169808,VALID,19.4201,VALID,34,VALID,0.675694,
2006-04-09, 03:36:00,VALID,915.704,VALID,0,VALID,100,VALID,-0.101885,VALID,17.7651,VALID,45,VALID,0.836328,
2006-04-09, 03:37:00,VALID,915.719,VALID,0,VALID,100,VALID,-0.101885,VALID,19.5455,VALID,46,VALID,0.841974,
2006-04-09, 03:38:00,VALID,915.716,VALID,0,VALID,100,VALID,-0.186789,VALID,17.4819,VALID,46,VALID,0.898438,